When you browse on this site, cookies collect data to enhance your experience and personalize the content and advertising you see.
Visit our Privacy Policy to learn more. By continuing to use the site, you agree to this use of cookies and data.
  • In Hungary
  • List of Countries
  • For 7 days
  • Water Temperature
  • Weather Map
  • News
  • Weather Widgets
  • user-avatar
    Login

    Hourly Weather Boquete

    Today, 17 November, Sunday

    Time Temperature Precipitation Wind Pressure Humidity
    00:00 +19°C° 0 mm 1 mps 659 mmHg 93%
    01:00 +19°C° 0 mm 1 mps 659 mmHg 94%
    02:00 +19°C° 0 mm 1 mps 658 mmHg 93%
    03:00 +18°C° 0 mm 1 mps 658 mmHg 93%
    04:00 +18°C° 0 mm 1 mps 658 mmHg 92%
    05:00 +18°C° 0 mm 1 mps 658 mmHg 91%
    06:00 +19°C° 0 mm 1 mps 659 mmHg 91%
    07:00 +19°C° 0 mm 1 mps 659 mmHg 93%
    08:00 +21°C° 0.1 mm 1 mps 660 mmHg 86%
    09:00 +23°C° 0.1 mm 1 mps 661 mmHg 79%
    10:00 +25°C° 0.1 mm 1 mps 662 mmHg 72%
    11:00 +24°C° 1.8 mm 1 mps 661 mmHg 77%
    12:00 +24°C° 1.8 mm 1 mps 660 mmHg 81%
    13:00 +24°C° 1.8 mm 1 mps 660 mmHg 86%
    14:00 +23°C° 2.2 mm 1 mps 659 mmHg 87%
    15:00 +23°C° 2.2 mm 1 mps 659 mmHg 89%
    16:00 +22°C° 2.2 mm 1 mps 658 mmHg 90%
    17:00 +21°C° 0.8 mm 1 mps 659 mmHg 92%
    18:00 +21°C° 0.8 mm 1 mps 659 mmHg 94%
    19:00 +20°C° 0.8 mm 1 mps 659 mmHg 96%
    20:00 +20°C° 0.1 mm 1 mps 659 mmHg 95%
    21:00 +19°C° 0.1 mm 1 mps 660 mmHg 95%
    22:00 +19°C° 0.1 mm 1 mps 660 mmHg 94%
    23:00 +19°C° 0 mm 1 mps 660 mmHg 95%

    Tomorrow, 18 November, Monday

    Time Temperature Precipitation Wind Pressure Humidity
    00:00 +19°C° 0 mm 1 mps 659 mmHg 95%
    01:00 +19°C° 0 mm 1 mps 659 mmHg 95%
    02:00 +19°C° 0 mm 1 mps 659 mmHg 94%
    03:00 +18°C° 0 mm 1 mps 658 mmHg 94%
    04:00 +18°C° 0 mm 1 mps 658 mmHg 94%
    05:00 +18°C° 0 mm 1 mps 659 mmHg 93%
    06:00 +18°C° 0 mm 1 mps 659 mmHg 92%
    07:00 +18°C° 0 mm 1 mps 659 mmHg 91%
    08:00 +20°C° 0 mm 1 mps 660 mmHg 83%
    09:00 +22°C° 0 mm 1 mps 661 mmHg 74%
    10:00 +24°C° 0 mm 1 mps 662 mmHg 65%
    11:00 +24°C° 0.2 mm 1 mps 662 mmHg 67%
    12:00 +25°C° 0.2 mm 2 mps 661 mmHg 68%
    13:00 +25°C° 0.2 mm 2 mps 661 mmHg 69%
    14:00 +24°C° 1 mm 1 mps 660 mmHg 77%
    15:00 +23°C° 1 mm 1 mps 660 mmHg 85%
    16:00 +21°C° 1 mm 1 mps 659 mmHg 93%
    17:00 +21°C° 0.5 mm 1 mps 659 mmHg 94%
    18:00 +20°C° 0.5 mm 1 mps 659 mmHg 95%
    19:00 +17°C° 0.5 mm 0 mps 659 mmHg 96%
    20:00 +19°C° 0.1 mm 1 mps 660 mmHg 96%
    21:00 +19°C° 0.1 mm 1 mps 660 mmHg 95%
    22:00 +18°C° 0.1 mm 1 mps 660 mmHg 94%
    23:00 +18°C° 0 mm 1 mps 660 mmHg 94%

    Day after tomorrow, 19 November, Tuesday

    Time Temperature Precipitation Wind Pressure Humidity
    00:00 +18°C° 0 mm 1 mps 660 mmHg 94%
    01:00 +18°C° 0 mm 1 mps 660 mmHg 93%
    02:00 +18°C° 0 mm 1 mps 659 mmHg 93%
    03:00 +18°C° 0 mm 1 mps 659 mmHg 93%
    04:00 +18°C° 0 mm 1 mps 659 mmHg 92%
    05:00 +18°C° 0 mm 1 mps 659 mmHg 92%
    06:00 +19°C° 0 mm 1 mps 660 mmHg 92%
    07:00 +19°C° 0 mm 1 mps 660 mmHg 92%
    08:00 +20°C° 0.1 mm 1 mps 661 mmHg 87%
    09:00 +22°C° 0.1 mm 1 mps 662 mmHg 82%
    10:00 +24°C° 0.1 mm 1 mps 663 mmHg 77%
    11:00 +23°C° 1.6 mm 1 mps 662 mmHg 80%
    12:00 +23°C° 1.6 mm 1 mps 661 mmHg 83%
    13:00 +23°C° 1.6 mm 1 mps 661 mmHg 87%
    14:00 +23°C° 1.7 mm 1 mps 661 mmHg 88%
    15:00 +22°C° 1.7 mm 1 mps 660 mmHg 90%
    16:00 +22°C° 1.7 mm 1 mps 660 mmHg 91%
    17:00 +21°C° 1.1 mm 1 mps 660 mmHg 93%
    18:00 +20°C° 1.1 mm 1 mps 660 mmHg 95%
    19:00 +18°C° 1.1 mm 0 mps 660 mmHg 96%
    20:00 +19°C° 0.1 mm 1 mps 660 mmHg 95%
    21:00 +19°C° 0.1 mm 1 mps 661 mmHg 95%
    22:00 +19°C° 0.1 mm 1 mps 661 mmHg 94%
    23:00 +19°C° 0 mm 1 mps 661 mmHg 94%

    20 November, Wednesday

    Time Temperature Precipitation Wind Pressure Humidity
    00:00 +18°C° 0 mm 1 mps 660 mmHg 94%
    01:00 +18°C° 0 mm 1 mps 660 mmHg 93%
    02:00 +18°C° 0 mm 1 mps 660 mmHg 93%
    03:00 +18°C° 0 mm 1 mps 660 mmHg 93%
    04:00 +18°C° 0 mm 1 mps 659 mmHg 93%
    05:00 +18°C° 0 mm 1 mps 660 mmHg 92%
    06:00 +18°C° 0 mm 1 mps 660 mmHg 91%
    07:00 +18°C° 0 mm 1 mps 660 mmHg 91%
    08:00 +20°C° 0 mm 1 mps 661 mmHg 83%
    09:00 +22°C° 0 mm 1 mps 662 mmHg 76%
    10:00 +24°C° 0 mm 1 mps 663 mmHg 69%
    11:00 +24°C° 0.5 mm 1 mps 663 mmHg 72%
    12:00 +24°C° 0.5 mm 1 mps 662 mmHg 74%
    13:00 +24°C° 0.5 mm 1 mps 662 mmHg 77%
    14:00 +24°C° 0.9 mm 1 mps 661 mmHg 80%
    15:00 +23°C° 0.9 mm 1 mps 661 mmHg 82%
    16:00 +22°C° 0.9 mm 1 mps 660 mmHg 85%
    17:00 +21°C° 0.2 mm 1 mps 660 mmHg 88%
    18:00 +20°C° 0.2 mm 1 mps 660 mmHg 92%
    19:00 +19°C° 0.2 mm 1 mps 660 mmHg 96%
    20:00 +19°C° 0 mm 1 mps 660 mmHg 95%
    21:00 +18°C° 0 mm 1 mps 661 mmHg 93%
    22:00 +18°C° 0 mm 1 mps 661 mmHg 92%
    23:00 +18°C° 0 mm 1 mps 661 mmHg 92%

    21 November, Thursday

    Time Temperature Precipitation Wind Pressure Humidity
    00:00 +18°C° 0 mm 1 mps 660 mmHg 92%
    01:00 +16°C° 0 mm 1 mps 660 mmHg 92%
    02:00 +16°C° 0 mm 1 mps 660 mmHg 91%
    03:00 +16°C° 0 mm 1 mps 660 mmHg 91%
    04:00 +16°C° 0 mm 1 mps 660 mmHg 90%
    05:00 +16°C° 0 mm 1 mps 660 mmHg 90%
    06:00 +16°C° 0 mm 1 mps 660 mmHg 89%
    07:00 +16°C° 0 mm 1 mps 661 mmHg 88%
    08:00 +20°C° 0 mm 1 mps 662 mmHg 79%
    09:00 +22°C° 0 mm 1 mps 662 mmHg 70%
    10:00 +24°C° 0 mm 1 mps 663 mmHg 62%
    11:00 +25°C° 0 mm 1 mps 663 mmHg 59%
    12:00 +25°C° 0 mm 1 mps 663 mmHg 56%
    13:00 +26°C° 0 mm 2 mps 662 mmHg 53%
    14:00 +25°C° 0 mm 2 mps 662 mmHg 59%
    15:00 +25°C° 0 mm 1 mps 661 mmHg 65%
    16:00 +24°C° 0 mm 1 mps 660 mmHg 71%
    17:00 +22°C° 0.1 mm 1 mps 660 mmHg 80%
    18:00 +21°C° 0.1 mm 1 mps 660 mmHg 88%
    19:00 +17°C° 0.1 mm 0 mps 660 mmHg 96%
    20:00 +17°C° 0 mm 0 mps 660 mmHg 94%
    21:00 +18°C° 0 mm 1 mps 660 mmHg 92%
    22:00 +18°C° 0 mm 1 mps 661 mmHg 90%
    23:00 +16°C° 0 mm 1 mps 660 mmHg 87%

    22 November, Friday

    Time Temperature Precipitation Wind Pressure Humidity
    00:00 +16°C° 0 mm 1 mps 660 mmHg 84%
    01:00 +16°C° 0 mm 1 mps 660 mmHg 81%
    02:00 +16°C° 0 mm 1 mps 659 mmHg 78%
    03:00 +15°C° 0 mm 1 mps 659 mmHg 75%
    04:00 +15°C° 0 mm 1 mps 659 mmHg 71%
    05:00 +15°C° 0 mm 1 mps 659 mmHg 70%
    06:00 +16°C° 0 mm 1 mps 660 mmHg 70%
    07:00 +16°C° 0 mm 1 mps 660 mmHg 69%
    08:00 +19°C° 0 mm 1 mps 661 mmHg 63%
    09:00 +22°C° 0 mm 1 mps 662 mmHg 58%
    10:00 +24°C° 0 mm 1 mps 663 mmHg 52%
    11:00 +25°C° 0 mm 1 mps 663 mmHg 53%
    12:00 +25°C° 0 mm 1 mps 662 mmHg 53%
    13:00 +26°C° 0 mm 2 mps 662 mmHg 54%
    14:00 +25°C° 0.1 mm 1 mps 661 mmHg 61%
    15:00 +24°C° 0.1 mm 1 mps 661 mmHg 68%
    16:00 +23°C° 0.1 mm 1 mps 660 mmHg 75%
    17:00 +22°C° 0.2 mm 1 mps 660 mmHg 82%
    18:00 +18°C° 0.2 mm 0 mps 660 mmHg 89%
    19:00 +17°C° 0.2 mm 0 mps 660 mmHg 96%
    20:00 +17°C° 0 mm 0 mps 660 mmHg 95%
    21:00 +17°C° 0 mm 0 mps 660 mmHg 95%
    22:00 +16°C° 0 mm 0 mps 661 mmHg 94%
    23:00 +18°C° 0 mm 1 mps 660 mmHg 91%
    Show more